TimePDT,TemperatureF,Dew PointF,Humidity,Sea Level PressureIn,VisibilityMPH,Wind Direction,Wind SpeedMPH,Gust SpeedMPH,PrecipitationIn,Events,Conditions,WindDirDegrees,DateUTC
12:53 AM,95.0,54.0,25,29.72,10.0,Calm,Calm,-,N/A,,Clear,0,2013-07-02 07:53:00
1:53 AM,93.0,54.0,27,29.73,10.0,South,4.6,-,N/A,,Clear,180,2013-07-02 08:53:00
2:53 AM,93.0,53.1,26,29.73,10.0,Calm,Calm,-,N/A,,Clear,0,2013-07-02 09:53:00
3:53 AM,91.0,55.0,29,29.74,10.0,SW,3.5,-,N/A,,Clear,220,2013-07-02 10:53:00
4:53 AM,91.9,53.1,27,29.71,10.0,West,6.9,-,N/A,,Clear,270,2013-07-02 11:53:00
5:39 AM,93.2,48.2,21,29.76,10.0,NNE,9.2,18.4,N/A,,Clear,30,2013-07-02 12:39:00
5:53 AM,93.9,46.9,20,29.75,10.0,Variable,3.5,-,N/A,,Clear,0,2013-07-02 12:53:00
7:53 AM,98.1,48.9,19,29.79,10.0,ESE,6.9,-,N/A,,Scattered Clouds,110,2013-07-02 14:53:00
8:53 AM,93.9,66.0,40,29.86,10.0,ENE,12.7,-,N/A,,Mostly Cloudy,70,2013-07-02 15:53:00
9:53 AM,96.1,66.9,38,29.90,10.0,East,13.8,23.0,N/A,,Scattered Clouds,100,2013-07-02 16:53:00
10:53 AM,96.1,70.0,43,29.91,10.0,East,11.5,-,N/A,,Clear,100,2013-07-02 17:53:00
11:53 AM,97.0,64.9,35,29.89,10.0,East,5.8,-,N/A,,Clear,100,2013-07-02 18:53:00
12:53 PM,98.1,62.1,30,29.86,10.0,Calm,Calm,-,N/A,,Mostly Cloudy,0,2013-07-02 19:53:00
1:53 PM,99.0,61.0,28,29.82,10.0,SE,3.5,-,N/A,,Mostly Cloudy,130,2013-07-02 20:53:00
2:53 PM,102.0,61.0,26,29.76,10.0,Calm,Calm,-,N/A,,Clear,0,2013-07-02 21:53:00
3:53 PM,105.1,57.9,21,29.73,10.0,Variable,5.8,-,N/A,,Scattered Clouds,0,2013-07-02 22:53:00
4:53 PM,106.0,55.9,19,29.70,10.0,Calm,Calm,-,N/A,,Clear,0,2013-07-02 23:53:00
5:53 PM,107.1,57.0,19,29.69,10.0,South,4.6,-,N/A,,Scattered Clouds,190,2013-07-03 00:53:00
6:53 PM,107.1,45.0,12,29.69,10.0,NW,13.8,19.6,N/A,,Scattered Clouds,310,2013-07-03 01:53:00
7:53 PM,105.1,42.1,12,29.70,10.0,NW,12.7,19.6,N/A,,Clear,320,2013-07-03 02:53:00
8:53 PM,100.9,45.0,15,29.71,10.0,NW,17.3,24.2,N/A,,Clear,320,2013-07-03 03:53:00
9:53 PM,100.0,46.0,16,29.71,10.0,Calm,Calm,-,N/A,,Clear,0,2013-07-03 04:53:00
10:53 PM,93.9,54.0,26,29.72,10.0,SE,8.1,-,N/A,,Clear,140,2013-07-03 05:53:00
11:53 PM,93.0,53.1,26,29.73,10.0,ENE,4.6,-,N/A,,Clear,60,2013-07-03 06:53:00